This is the latest recevied weather packets stored in our database for station/object WX1NWA. If no packets are shown the sender has not sent any weather packets the latest 10 day(s).
| Time | Temp. | Humidity | Pressure | Rain* | Wind** | Luminosity | Snow |
|---|---|---|---|---|---|---|---|
| 1777595828 | 12.78° C | 65% | 1018.7 hPa | 0 mm | - | 12 W/m² | - |
| 1777595523 | 12.78° C | 64% | 1018.5 hPa | 0 mm | - | 15 W/m² | - |
| 1777595220 | 12.78° C | 65% | 1018.4 hPa | 0 mm | - | 20 W/m² | - |
| 1777594915 | 12.78° C | 64% | 1018.6 hPa | 0 mm | - | 23 W/m² | - |
| 1777594612 | 12.78° C | 64% | 1018.5 hPa | 0 mm | - | 37 W/m² | - |
| 1777594309 | 12.78° C | 64% | 1018.6 hPa | 0 mm | - | 27 W/m² | - |
| 1777594005 | 12.78° C | 63% | 1018.8 hPa | 0 mm | - | 28 W/m² | - |
| 1777593701 | 13.33° C | 63% | 1018.7 hPa | 0 mm | - | 37 W/m² | - |
| 1777593397 | 13.33° C | 63% | 1018.5 hPa | 0 mm | - | 49 W/m² | - |
| 1777593096 | 13.33° C | 64% | 1018.5 hPa | 0 mm | - | 51 W/m² | - |
| 1777592795 | 13.33° C | 63% | 1018.6 hPa | 0 mm | - | 47 W/m² | - |
| 1777592492 | 13.33° C | 65% | 1018.4 hPa | 0 mm | - | 55 W/m² | - |
| 1777592187 | 13.33° C | 63% | 1018.7 hPa | 0 mm | - | 64 W/m² | - |
| 1777591884 | 13.33° C | 60% | 1018.5 hPa | 0 mm | - | 70 W/m² | - |
| 1777591580 | 13.33° C | 60% | 1018.8 hPa | 0 mm | - | 69 W/m² | - |
| 1777591276 | 13.33° C | 60% | 1018.8 hPa | 0 mm | - | 63 W/m² | - |
| 1777590972 | 13.33° C | 61% | 1018.6 hPa | 0 mm | - | 72 W/m² | - |
| 1777590668 | 13.89° C | 58% | 1019 hPa | 0 mm | - | 88 W/m² | - |
| 1777590364 | 13.33° C | 62% | 1018.8 hPa | 0 mm | - | 103 W/m² | - |
| 1777590061 | 13.89° C | 60% | 1018.8 hPa | 0 mm | - | 116 W/m² | - |
| 1777589758 | 13.33° C | 60% | 1018.6 hPa | 0 mm | - | 100 W/m² | - |
| 1777589456 | 13.89° C | 59% | 1018.8 hPa | 0 mm | - | 71 W/m² | - |
| 1777589152 | 13.89° C | 59% | 1019 hPa | 0 mm | - | 84 W/m² | - |
| 1777588848 | 13.89° C | 57% | 1018.6 hPa | 0 mm | - | 139 W/m² | - |
| 1777588544 | 13.89° C | 57% | 1018.7 hPa | 0 mm | - | 148 W/m² | - |
* Rain latest hour (hover to see other rain measurements)
** Current wind speed in m/s (hover to see current wind gust speed)